You are listening to:
LKPR Approach - Prague, Czech Republic

LKPR 282030Z 20008KT CAVOK 10/07 Q1015 NOSIG

If stream doesn't start automatically press the play button
If stream stops then reload player then press play